Regional Weather Roundup
Issued by NWS Northern Indiana

Home | Current Version | Previous Version | Text Only | Print | Product List | Glossary On
Versions: 1 2 3 4 5 6 7 8 9 10 11 12 13 14 15 16 17 18 19 20 21 22 23 24 25 26 27 28 29 30 31 32 33 34 35 36 37 38 39 40 41 42 43 44 45 46 47 48 49 50
000
ASUS43 KIWX 270910
RWRIWX

KIWX WEATHER ROUNDUP
NATIONAL WEATHER SERVICE NORTHERN INDIANA
500 AM EDT MON APR 27 2015

NOTE: "FAIR" INDICATES FEW OR NO CLOUDS BELOW 12,000 FEET WITH NO
SIGNIFICANT WEATHER AND/OR OBSTRUCTIONS TO VISIBILITY.

* THESE STATIONS ARE NOT UNDER NWS QUALITY CONTROL. THEY ALSO MAY NOT
  REPORT WEATHER SUCH AS PRECIPITATION OR FOG.

INZ001>027-271000-
NORTHERN INDIANA

CITY           SKY/WX    TMP DP  RH WIND       PRES   REMARKS
GARY*          CLEAR     42  32  66 N14       30.05F
VALPARAISO     CLEAR     38  33  82 N8        30.02S
MICHIGAN CITY* CLEAR     37  32  81 N8        30.04R
LAPORTE*       CLEAR     39  36  87 N12       30.02S
KNOX*          CLEAR     36  30  80 N10       30.00S
SOUTH BEND     CLEAR     38  32  79 N9        30.01R
GOSHEN         CLEAR     37  30  75 N8        29.97R
MONTICELLO*    CLEAR     36  33  90 N8        29.98S
LOGANSPORT*    CLEAR     36  32  87 N10       29.98S
ROCHESTER*     CLEAR     41  34  75 NW10      29.98S
WARSAW*        CLEAR     37  30  75 NW8       29.96R
ANGOLA*        CLEAR     37  30  75 N3        29.95R
FORT WAYNE     CLEAR     38  31  76 NW7       29.94R
HUNTINGTON*    CLEAR     38  30  72 NW3       29.94R
PERU/GRISSOM   CLEAR     37  31  79 NW10      29.96R
MARION*        CLEAR     36  30  79 NW6       29.95S

$$
INZ028>050-271000-
CENTRAL INDIANA

CITY           SKY/WX    TMP DP  RH WIND       PRES   REMARKS
LAFAYETTE      CLEAR     35  31  85 N7        29.98F WCI  29
KOKOMO*        CLEAR     36  28  75 NW9       29.96S
MUNCIE*        CLEAR     38  31  76 W5        29.93F
INDIANAPOLIS   CLEAR     38  29  70 N9        29.94S

$$
MIZ043>046-050>051-056>058-064>065-071>073-077>080-271000-
SOUTHWEST LOWER MICHIGAN

CITY           SKY/WX    TMP DP  RH WIND       PRES   REMARKS
BATTLE CREEK   CLOUDY    41  31  67 N8        29.97S
BENTON HARBOR  CLEAR     38  34  85 VRB6      30.02R
COLDWATER*     MOCLDY    37  30  77 N5        29.96S
HILLSDALE*     MOCLDY    35  32  88 CALM      29.93F
HOLLAND        CLOUDY    43  32  65 NW7       30.02R
GRAND RAPIDS   MOCLDY    40  30  67 NW7       29.99R
KALAMAZOO      CLOUDY    40  32  73 N8        29.98R
STURGIS*       CLEAR     39  30  70 N7        29.96R
THREE RIVERS*  FAIR      39  31  73 N6        29.98R

$$
OHZ001>008-015>018-024>025-271000-
NORTHWEST OHIO

CITY           SKY/WX    TMP DP  RH WIND       PRES   REMARKS
WAUSEON*       MOCLDY    36  32  87 W6        29.93S
DEFIANCE       CLEAR     38  33  82 N3        29.95R
FINDLAY        CLEAR     41  32  70 CALM      29.91F
TOLEDO EXPRESS MOCLDY    38  32  79 SW3       29.92F
TOLEDO METCALF CLOUDY    41  33  73 W5        29.93F
LIMA           CLEAR     39  32  76 E3        29.92S

$$
AND FOR LAKE MICHIGAN COASTAL AND OPEN LAKE BUOY OBSERVATIONS

STATION/POSITION TEMP    WIND        PRES    VSBY  WAVE
                 AIR SEA DIR/SP/G                  HT/PER
                 (F)     (DEG/KT/KT) (MB)    (MI)  (FT/S)
CALUMET HARBOR    42     340/ 12/ 17   N/A
MICHIGAN CITY     40     340/ 22/ 26   N/A
BURNS HARBOR      42     360/ 17/ 22 1017.3S
SAINT JOSEPH      42     340/ 14/ 17 1017.3R
MICHIGAN CITY     40 45  360/ 16/ 21   N/A           4/ 5

$$
&&


USA.gov is the U.S. government's official web portal to all federal, state and local government web resources and services.